PST,Max TemperatureF,Mean TemperatureF,Min TemperatureF,Max Dew PointF,MeanDew PointF,Min DewpointF,Max Humidity, Mean Humidity, Min Humidity, Max Sea Level PressureIn, Mean Sea Level PressureIn, Min Sea Level PressureIn, Max VisibilityMiles, Mean VisibilityMiles, Min VisibilityMiles, Max Wind SpeedMPH, Mean Wind SpeedMPH, Max Gust SpeedMPH,PrecipitationIn, CloudCover, Events, WindDirDegrees
2014-2-1,37,21,5,23,10,-1,84,63,41,30.19,30.11,30.04,10,10,10,8,3,10,0.00,0,,192
2014-2-2,30,21,12,24,20,6,88,78,68,30.03,29.87,29.79,10,4,0,9,2,11,0.06,7,Snow,141
2014-2-3,34,25,15,20,17,10,81,62,43,29.99,29.90,29.84,10,10,10,10,3,16,0.00,6,,187
2014-2-4,36,22,7,19,12,1,81,58,35,30.12,30.05,29.97,10,10,10,14,2,16,0.00,0,,191
2014-2-5,40,25,9,21,11,3,80,53,25,30.19,30.05,29.92,10,10,10,17,5,24,0.00,3,,182
2014-2-6,40,35,29,29,25,21,85,72,59,29.92,29.85,29.77,10,7,2,23,8,31,T,8,Snow,190
2014-2-7,39,35,31,31,26,20,82,69,56,29.97,29.90,29.85,10,4,0,31,16,48,0.03,8,Rain-Snow,193
2014-2-8,41,39,37,34,33,31,85,78,70,30.16,30.06,29.96,10,5,2,24,13,39,1.97,8,Rain,182
2014-2-9,42,39,35,35,33,31,85,78,70,30.13,30.08,30.02,10,5,2,22,11,31,1.96,8,Rain-Snow,178
2014-2-10,47,39,30,36,31,26,92,73,53,30.25,30.18,30.04,10,8,1,14,4,21,0.27,6,Rain-Snow,125
2014-2-11,52,38,24,27,19,6,85,51,16,30.27,30.20,30.15,10,10,10,15,2,21,0.00,1,,192
2014-2-12,58,48,38,17,9,-2,40,27,14,30.22,30.16,30.09,10,10,10,22,12,29,0.00,0,,191
2014-2-13,55,49,42,39,30,17,70,50,29,30.19,30.13,30.08,10,10,10,21,9,29,T,4,Rain,187
2014-2-14,59,53,46,34,12,2,65,39,12,30.09,30.02,29.96,10,10,10,26,12,39,0.00,0,,200
2014-2-15,57,47,37,32,15,-4,82,46,9,30.11,29.96,29.89,10,9,4,37,14,56,0.13,5,Rain-Snow,203
2014-2-16,51,39,26,34,29,20,85,62,38,30.20,30.04,29.88,10,7,1,24,13,39,0.11,4,Rain-Snow,195
2014-2-17,51,37,22,27,16,3,81,48,15,30.17,30.11,30.06,10,10,10,24,5,34,0.00,0,,195
2014-2-18,54,40,26,29,17,6,63,44,24,30.21,30.12,29.92,10,10,10,21,3,27,0.00,3,,189
2014-2-19,50,39,28,29,21,3,78,48,18,30.17,30.03,29.90,10,9,4,26,10,39,T,2,Snow,182
2014-2-20,54,39,24,27,21,18,81,55,28,30.26,30.17,30.11,10,10,10,14,3,22,0.00,0,,203
2014-2-21,55,40,24,26,22,18,75,52,28,30.17,30.07,30.01,10,10,10,12,2,17,0.00,0,,188
2014-2-22,56,40,23,27,21,4,81,47,13,30.09,30.02,29.95,10,10,10,10,2,16,0.00,0,,157
2014-2-23,58,40,21,27,22,15,84,53,22,30.11,30.05,29.98,10,10,10,12,3,16,0.00,0,,186
2014-2-24,58,40,22,30,22,16,81,52,23,30.16,30.07,29.99,10,10,10,10,3,13,0.00,0,,170
2014-2-25,58,42,25,28,24,19,81,52,23,30.09,30.01,29.94,10,10,10,10,2,15,0.00,0,,116
2014-2-26,49,41,32,35,30,25,75,59,42,29.94,29.83,29.69,10,8,1,24,4,35,0.40,7,Rain-Snow,187
2014-2-27,42,36,29,31,28,23,85,70,54,29.85,29.77,29.64,10,5,0,28,7,37,0.35,6,Fog-Rain-Snow,184
2014-2-28,45,37,29,33,29,23,89,74,58,29.70,29.49,29.39,10,4,0,25,3,35,0.70,7,Fog-Rain-Snow,191